Dean International
Flight School

Career Spotlight

Mika

Mika

Congratulations to Mika from Khazakstan. She recently sent us this photo of her flying an Airbus airliner.

More...
Mika's Success Story
close

Congratulations to Mika from Khazakstan. She recently sent us this photo of her flying an Airbus airliner.

Mario

Mario

My dreams could not have been realized if I wouldn't have been part of the Dean International family.

More...
Mario's Success Story
close

"My dreams could not have been realized if I wouldn't have been part of the Dean International family. Thank you Robert, thanks to all my co-workers, and thanks to all of my students!"

Fernando

Fernando

I am now working as a First Officer at TACA and am enjoying every moment of it.

More...
Fernando's Success Story
close

"Will never forget my time of flight training at Dean International. I am now working as a First Officer at TACA and am enjoying every moment of it."

Alvaro

Alvaro

Because of the flight time I was able to built while instructing, I got the experience needed to apply to an airline in Colombia.

More...
Alvaro's Success Story
close

Dean alumnus Alvaro Londoño currently flies with Tampa Cargo. He says of his experience at Dean: "I want to take this opportunity to thank you for giving me the chance to build my experience and expand my knowledge in Dean International. Because of the flight time I was able to built flight instructing, I got the experience needed to apply to an airline in Colombia."

Ralph

Ralph

Every Aruban student of Dean International has made it into Tiara Air Aruba, that is very nice.

More...
Ralph's Success Story
close

"Next to me is my Co-Pilot, Elison. This picture was taken on our first flight together, which was almost exactly 5 years after I finished at Dean International. [...] Every Aruban student of Dean International has made it into Tiara Air Aruba. [...] The future looks bright here in Aruba."

Rohaan

Rohaan

The [..] staff will all work diligently to help you finish your certificates as safely and efficiently as possible.

More...
Rohaan's Success Story
close

After receiving very hard times from other flight schools [...], I came to Dean International where Robert Dean personally sat down with me and gave me a financial and chronological look into how much remained to finish my private pilot certificate. Through his hard efforts as an instructor and mentor, I was able to finish my private pilot certificate within one week.

Welcome to Dean International

In over two decades, Dean International has educated over 7,000 pilots from all over the world, including over 1,000 students from India alone. By offering a great training experience, a friendly service staff, an ample variety of aircraft, and by improving constantly, we have become one of the largest, most prestigious FAA 141-approved flight schools in North America. Located in Miami, Florida, USA, our flight school offers an ideal location for year-round, "learn to fly" weather, flight training. Dean International is not only well-equipped to provide services to professional trainees but also caters to General Aviation renters. Visit or contact our headquarters at Kendall-Tamiami Executive Airport located in Miami, FL today to learn more about us, or simply read more about our programs if you are an international student interested in joining our school.

Local Airport Information
TAF FOR KTMB (Issued: Thu, July 28th 2016 6:48 PM UTC)
TAF KTMB 281745Z 2818/2918 10009KT P6SM VCSH SCT029 SCT040
      FM290300 10006KT P6SM FEW030 SCT250
      FM291400 13008KT P6SM SCT030
     
METAR FOR KTMB (Issued: Thu, July 28th 2016 7:53 PM UTC):
KTMB 281953Z 12009KT 10SM SCT033 SCT050 32/24 A3001 RMK AO2 SLP163 T03220239

This weather information is provided by the National Weather Service.
It is automatically refreshed every three minutes.
TAF FOR KHST (Issued: Thu, July 28th 2016 4:07 PM UTC)
TAF KHST 281600Z 2816/2922 11009KT 9999 SCT020 SCT100 QNH3000INS
      TEMPO 2816/2817 12015G25KT 8000 -TSRA BKN025CB
      BECMG 2914/2915 10009KT 9999 FEW040 QNH3001INS TX32/2820Z TN26/2910Z
     
METAR FOR KHST (Issued: Thu, July 28th 2016 7:58 PM UTC):
KHST 281958Z AUTO 09008KT 070V130 10SM FEW023 32/25 A3001 RMK AO2 SLP165 T03210253

This weather information is provided by the National Weather Service.
It is automatically refreshed every three minutes.
TAF FOR KOPF (Issued: Thu, July 28th 2016 6:48 PM UTC)
TAF KOPF 281745Z 2818/2918 10012KT P6SM VCSH SCT030 SCT250
      FM290300 11006KT P6SM FEW030 SCT250
      FM291400 13008KT P6SM SCT030
     
METAR FOR KOPF (Issued: Thu, July 28th 2016 7:53 PM UTC):
KOPF 281953Z 11007KT 10SM FEW035 SCT043 32/23 A3003 RMK AO2 SLP168 T03170233

This weather information is provided by the National Weather Service.
It is automatically refreshed every three minutes.
TAF FOR KMIA (Issued: Thu, July 28th 2016 6:51 PM UTC)
TAF KMIA 281745Z 2818/2918 13008KT P6SM VCSH SCT030 SCT250
      FM290300 10006KT P6SM FEW030 SCT250
      FM291400 13008KT P6SM SCT030
     
METAR FOR KMIA (Issued: Thu, July 28th 2016 7:53 PM UTC):
KMIA 281953Z 11011KT 10SM SCT031 SCT100 SCT250 32/24 A3002 RMK AO2 SLP167 T03220244

This weather information is provided by the National Weather Service.
It is automatically refreshed every three minutes.
Design by Ariel Llizo
© Dean International Inc. 2012